{"data":{"norad_id":56006,"intl_designator":"2023-042W","name":"STARLINK-5794","alt_names":[],"object_type":"PAYLOAD","status":"ACTIVE","operator":null,"country":"US","launch_date":"2023-03-24","launch_site_code":"AFETR","launch_vehicle":null,"mission":null,"orbit_class":"UNKNOWN","rcs_meters":null,"size_class":null,"mass_kg":null,"dimensions":null,"purposes":["comms"],"wikipedia_slug":null,"has_3d_model":false,"image_url":null,"decayed_at":null,"tle_current":{"epoch":"2026-05-25T04:00:03.998880Z","epoch_age_seconds":60103,"freshness":"FRESH","line1":"1 56006U 23042W   26145.16671295  .00044686  00000+0  19874-2 0  9991","line2":"2 56006  43.0009 354.9888 0001574 238.6256 356.7664 15.20800268  5609","mean_motion":15.20800268,"eccentricity":0.0001574,"inclination_deg":43.0009,"raan_deg":354.9888,"arg_perigee_deg":238.6256,"mean_anomaly_deg":356.7664,"bstar":0.0019874,"rev_number":560,"period_min":94.686990152477,"perigee_km":502.3422755175,"apogee_km":504.50859137155,"semimajor_km":6881.5624334445,"source":"CELESTRAK","updated_at":"2026-05-25T13:38:17.925480Z"}}}